Location: Spring Creek
(38.2870°N, 100.2160°W)
Time: 22:13:46
(UTC+00:00)

Cosmos 1315 Rocket - Pass Details

Date: 08 May 2021
Orbit: 530 x 567 km, 81.2° (Epoch: 20 June)

Event Time Altitude Azimuth Distance (km) Brightness Sun altitude
Rises 09:11:56 0° 349° (N) 2,696 6.9 -23.7°
Reaches altitude 10° 09:14:05 10° 348° (NNW) 1,805 5.9 -23.5°
Enters shadow 09:17:37 68° 322° (NW) 589 2.9 -23.0°
